Regional Weather Roundup
Issued by NWS

Home | Current Version | Previous Version | Text Only | Print | Product List | Glossary Off
Versions: 1 2 3 4 5 6 7 8 9 10 11 12 13 14 15 16 17 18 19 20 21 22 23 24 25 26 27 28 29 30 31 32 33 34 35 36 37 38 39 40 41 42 43 44 45 46 47 48 49 50

000
ASUS43 KOAX 261602
RWRNE

WEATHER ROUNDUP FOR NEBRASKA
NATIONAL WEATHER SERVICE OMAHA NE
1100 AM CDT FRI MAY 26 2017

NOTES: SATELLITE DATA IS BEING USED TO AUGMENT CLOUD COVER ABOVE
       12000 FEET.
       "FAIR" INDICATES FEW OR NO CLOUDS BELOW 12,000 FEET WITH NO
       SIGNIFICANT WEATHER AND/OR OBSTRUCTIONS TO VISIBILITY.

  * THESE STATIONS DO NOT REPORT WEATHER SUCH AS RAIN...SNOW OR FOG.

NEZ001>004-019>022-054>056-261700-
NEBRASKA PANHANDLE

CITY           SKY/WX    TMP DP  RH WIND       PRES   REMARKS
SCOTTSBLUFF    CLOUDY    57  38  48 MISG      29.97S
ALLIANCE       SUNNY     57  39  51 N5        29.95S
CHADRON        SUNNY     59  37  44 E3        29.94S
GORDON         FAIR      59  33  37 N9        29.94R
KIMBALL        SUNNY     56  36  46 E3        29.98F
SIDNEY         SUNNY     57  39  51 N5        29.98S
$$

NEZ057>060-069>072-079>082-261700-
SOUTHWEST NEBRASKA

CITY           SKY/WX    TMP DP  RH WIND       PRES   REMARKS
NORTH PLATTE   SUNNY     64  44  48 N8G20     29.93R
IMPERIAL       SUNNY     61  45  55 N14       29.96R
LEXINGTON      CLOUDY    64  46  53 N12G18    29.90R
MCCOOK         PTSUNNY   63  45  51 N10       29.92S
OGALLALA       SUNNY     62  42  49 NE6       29.95S
$$

NEZ005>010-023>029-035>040-094-261700-
NORTH CENTRAL NEBRASKA

CITY           SKY/WX    TMP DP  RH WIND       PRES   REMARKS
VALENTINE      SUNNY     65  37  35 NW13G21   29.92S
AINSWORTH      SUNNY     60  42  49 N17G23    29.91S
BROKEN BOW     SUNNY     64  42  44 N15G25    29.89R
O`NEILL        CLOUDY    63  43  46 NW18      29.88S
ORD            SUNNY     65  45  48 N15       29.87R
THEDFORD       SUNNY     62  40  44 N12G17    29.94S
$$

NEZ041-046>049-061>064-073>077-083>087-261700-
SOUTH CENTRAL NEBRASKA

CITY           SKY/WX    TMP DP  RH WIND       PRES   REMARKS
GRAND ISLAND   MOSUNNY   66  46  48 N14G23    29.87R
AURORA         MOSUNNY   67  45  44 N14G21    29.85R
HASTINGS       CLOUDY    68  47  46 N14       29.87R
HEBRON         SUNNY     72  49  44 N14       29.81S
HOLDREGE       MOSUNNY   64  43  46 N15       29.88R
KEARNEY *      CLOUDY    64  45  48 N14G21    29.89R
YORK           CLOUDY    68  48  49 N17G23    29.83S
$$

NEZ011>018-030>034-042>045-261700-
NORTHEAST NEBRASKA

CITY           SKY/WX    TMP DP  RH WIND       PRES   REMARKS
NORFOLK        MOSUNNY   66  47  50 NW17      29.83R
ALBION         SUNNY     67  45  44 N16G25    29.84S
BLAIR          MOSUNNY   68  55  62 N13       29.79R
FREMONT        PTSUNNY   68  49  49 NW10G18   29.81S
TEKAMAH        MOSUNNY   69  52  54 N15       29.78S
WAYNE          CLOUDY    67  48  51 N17G24    29.81S
$$

NEZ050>053-065>068-078-088>093-261700-
SOUTHEAST NEBRASKA

CITY           SKY/WX    TMP DP  RH WIND       PRES   REMARKS
LINCOLN        SUNNY     72  51  47 N16       29.80R
OMAHA EPPLEY   MOSUNNY   69  56  62 N17       29.77R
BEATRICE       SUNNY     75  57  53 N15G22    29.79R
FALLS CITY     SUNNY     76  63  64 NW13      29.74R
NEBRASKA CITY  SUNNY     76  55  48 NE10      29.76S
PLATTSMOUTH    SUNNY     75  58  55 NW10      29.77R
$$

NEZ044-045-051>053-067-261700-
OMAHA AREA

CITY           SKY/WX    TMP DP  RH WIND       PRES   REMARKS
OMAHA EPPLEY   MOSUNNY   69  56  62 N17       29.77R
BLAIR          MOSUNNY   68  55  62 N13       29.79R
FREMONT        PTSUNNY   68  49  49 NW10G18   29.81S
MILLARD        MOSUNNY   71  56  58 NW12      29.79R
OFFUTT AFB     MOSUNNY   73  58  59 N10       29.76R
PLATTSMOUTH    SUNNY     75  58  55 NW10      29.77R
WAHOO          CLOUDY    69  49  48 NW14G20   29.81R
$$



USA.gov is the U.S. government's official web portal to all federal, state and local government web resources and services.